sat.trackr.live / text

‹ back to catalog

STARLINK-2462

NORAD 48121 · 2021-027AF

PAYLOAD ACTIVE UNKNOWN

§ Identity

Operator
Country
US
Launch date
2021-04-07
Launch site
AFETR
Launch vehicle
Mass (kg)
RCS (m²)

Purposes: comms

External: N2YO · Heavens-Above · Gunter

§ Orbital elements

Epoch: 2026-09-12T23:53:37.424256Z

Period
94.01 min
Inclination
53.1615°
Eccentricity
0.0001170
Mean motion
15.31709083 rev/d
Perigee alt
469.9 km
Apogee alt
471.5 km
Semi-major
6,848.8 km
B*
1.8102e-4
RAAN
3.2670°
Arg perigee
92.7389°
Mean anomaly
267.3747°
Rev number
30,135

§ Raw data

STARLINK-24621 48121U 21027AF  26255.99557204  .00005258  00000+0  18102-3 0  99932 48121  53.1615   3.2670 0001170  92.7389 267.3747 15.31709083301359

JSON: /api/v1/satellites/48121 · /tle

For live sub-satellite position, see the globe view (requires WebGL).

§ Visibility from observer

Set your observer location to see the next 7 days of passes ≥ 10°. The values pass through the URL so the page stays shareable.

No JS? Fill the form by hand. The geolocation button needs JavaScript.